Location: Brivio
(45.7333°N, 9.4500°E)
Time: 12:04:02
(UTC+00:00)

N. Korean satellite - Pass Details

Date: 11 December 2019
Orbit: 454 x 508 km, 97.2° (Epoch: 17 January)

Event Time Altitude Azimuth Distance (km) Brightness Sun altitude
Rises 04:34:50 0° 24° (NNE) 2,545 10.4 -23.1°
Reaches altitude 10° 04:37:12 10° 38° (NE) 1,650 9.6 -22.7°
Maximum altitude 04:40:09 24° 95° (E) 1,006 8.9 -22.2°
Drops below altitude 10° 04:43:02 10° 151° (SSE) 1,614 9.7 -21.7°
Sets 04:45:19 0° 166° (SSE) 2,475 10.5 -21.3°
